EA3CIU-1 Weather Reports


Display with metric or nautical units.
time (UTC)temp
F
wind
direction
speed
MPH
gust
MPH
rain 1hr
in
rain 24hr
in
rain mn
in
humidity
%
barometer
mb
20260507191206 61 178 0.0 4.0 0.00 0.00 0.00 68 1012.0
20260507190707 61 142 0.0 4.0 0.00 0.00 0.00 68
20260507190207 61 139 0.0 4.0 0.00 0.00 0.00 69 1012.0
20260507185705 61 131 2.0 4.0 0.00 0.00 0.00 69 1012.0
20260507185206 61 174 0.0 5.0 0.00 0.00 0.00 69 1012.0
20260507184207 61 146 0.0 5.0 0.00 0.00 0.00 70 1012.0
20260507183705 61 179 0.0 4.0 0.00 0.00 0.00 69
20260507183206 61 172 3.0 5.0 0.00 0.00 0.00 69 1012.0
20260507182706 61 114 3.0 6.0 0.00 0.00 0.00 69 1011.0
20260507181705 61 163 4.0 6.0 0.00 0.00 0.00 69 1011.0
20260507181206 62 162 3.0 6.0 0.00 0.00 0.00 69 1011.0
20260507180707 62 103 4.0 8.0 0.00 0.00 0.00 69 1011.0
20260507180207 62 140 5.0 8.0 0.00 0.00 0.00 69 1011.0
20260507175706 62 150 4.0 8.0 0.00 0.00 0.00 68 1011.0
20260507174706 62 166 4.0 8.0 0.00 0.00 0.00 67 1011.0
20260507174206 63 147 3.0 6.0 0.00 0.00 0.00 66 1011.0
20260507173706 63 147 4.0 6.0 0.00 0.00 0.00 65 1011.0
20260507173206 63 137 3.0 6.0 0.00 0.00 0.00 64 1011.0
20260507172707 63 158 4.0 8.0 0.00 0.00 0.00 65 1011.0
20260507172206 63 173 0.0 8.0 0.00 0.00 0.00 66 1011.0
20260507171706 63 151 3.0 8.0 0.00 0.00 0.00 66 1011.0
20260507171206 63 144 4.0 6.0 0.00 0.00 0.00 65 1011.0
20260507170706 63 144 4.0 6.0 0.00 0.00 0.00 64 1011.0
20260507170207 63 145 4.0 6.0 0.00 0.00 0.00 63 1011.0
20260507165705 63 104 4.0 6.0 0.00 0.00 0.00 63 1011.0
20260507165206 64 144 4.0 8.0 0.00 0.00 0.00 63 1011.0
20260507164706 64 168 4.0 8.0 0.00 0.00 0.00 63
20260507164207 64 146 5.0 8.0 0.00 0.00 0.00 62 1011.0
20260507163707 64 170 4.0 8.0 0.00 0.00 0.00 62 1011.0
20260507162706 63 153 4.0 6.0 0.00 0.00 0.00 61 1011.0
20260507162206 64 144 4.0 6.0 0.00 0.00 0.00 61 1011.0
20260507161705 64 158 5.0 8.0 0.00 0.00 0.00 61 1011.0
20260507161205 64 130 4.0 8.0 0.00 0.00 0.00 60 1011.0
20260507160706 64 172 4.0 8.0 0.00 0.00 0.00 60 1011.0
20260507160208 64 119 4.0 8.0 0.00 0.00 0.00 59 1011.0
20260507155705 64 109 5.0 8.0 0.00 0.00 0.00 59 1011.0
20260507155206 64 158 5.0 8.0 0.00 0.00 0.00 59 1011.0
20260507154707 64 181 5.0 9.0 0.00 0.00 0.00 58 1011.0
20260507154208 64 163 6.0 9.0 0.00 0.00 0.00 59 1011.0
20260507153206 65 157 4.0 11.0 0.00 0.00 0.00 56 1011.0
20260507152705 65 103 4.0 11.0 0.00 0.00 0.00 56 1011.0
20260507152205 65 169 4.0 8.0 0.00 0.00 0.00 55 1011.0
20260507151705 65 143 4.0 8.0 0.00 0.00 0.00 55 1011.0
20260507151206 65 177 4.0 8.0 0.00 0.00 0.00 55 1011.0
20260507150706 65 149 4.0 8.0 0.00 0.00 0.00 54 1011.0
20260507150206 65 173 5.0 6.0 0.00 0.00 0.00 54 1011.0
20260507145706 65 164 4.0 6.0 0.00 0.00 0.00 54 1011.0
20260507144706 65 128 0.0 8.0 0.00 0.00 0.00 53 1011.0
20260507144208 65 151 0.0 8.0 0.00 0.00 0.00 54 1011.0
20260507143205 65 148 4.0 8.0 0.00 0.00 0.00 54 1011.0
20260507142706 66 120 3.0 8.0 0.00 0.00 0.00 53 1011.0
20260507142205 66 159 3.0 6.0 0.00 0.00 0.00 53 1011.0
20260507141705 66 159 2.0 8.0 0.00 0.00 0.00 53 1011.0
20260507141206 65 184 3.0 8.0 0.00 0.00 0.00 54 1011.0
20260507140707 65 129 5.0 8.0 0.00 0.00 0.00 54 1011.0
20260507140207 66 162 5.0 10.0 0.00 0.00 0.00 54 1011.0
20260507135206 66 145 5.0 10.0 0.00 0.00 0.00 54 1011.0
20260507134705 66 153 4.0 11.0 0.00 0.00 0.00 55 1011.0
20260507133705 66 143 6.0 11.0 0.00 0.00 0.00 54 1012.0
20260507133206 66 138 7.0 11.0 0.00 0.00 0.00 54 1012.0
20260507132705 66 187 5.0 11.0 0.00 0.00 0.00 55 1012.0
20260507132206 65 106 6.0 8.0 0.00 0.00 0.00 55 1012.0
20260507131705 67 0 4.0 8.0 0.00 0.00 0.00 55 1012.0
20260507131206 66 155 4.0 9.0 0.00 0.00 0.00 55 1012.0
20260507130207 66 180 5.0 11.0 0.00 0.00 0.00 56 1012.0
20260507125706 66 156 5.0 11.0 0.00 0.00 0.00 57 1012.0
20260507125206 66 141 5.0 10.0 0.00 0.00 0.00 56
20260507124706 66 146 5.0 10.0 0.00 0.00 0.00 57
20260507124205 65 189 5.0 9.0 0.00 0.00 0.00 57 1012.0
20260507123706 66 142 6.0 9.0 0.00 0.00 0.00 57
20260507123205 66 124 7.0 9.0 0.00 0.00 0.00 57
20260507122706 67 145 4.0 12.0 0.00 0.00 0.00 56 1012.0
20260507122208 67 160 4.0 12.0 0.00 0.00 0.00 56 1012.0
20260507121706 66 123 4.0 12.0 0.00 0.00 0.00 57 1012.0
20260507121206 66 129 4.0 9.0 0.00 0.00 0.00 57 1012.0
20260507120707 67 145 5.0 10.0 0.00 0.00 0.00 57 1012.0
20260507120206 66 129 5.0 10.0 0.00 0.00 0.00 57 1012.0
20260507115206 67 120 4.0 9.0 0.00 0.00 0.00 56 1012.0
20260507114705 67 80 6.0 9.0 0.00 0.00 0.00 57 1012.0
20260507113707 67 101 4.0 8.0 0.00 0.00 0.00 57 1012.0
20260507113206 67 118 4.0 8.0 0.00 0.00 0.00 56 1012.0
20260507112706 67 141 0.0 8.0 0.00 0.00 0.00 57 1012.0
20260507112206 66 168 4.0 9.0 0.00 0.00 0.00 58 1012.0
20260507111705 66 154 5.0 9.0 0.00 0.00 0.00 57 1012.0
20260507111206 66 148 5.0 9.0 0.00 0.00 0.00 57 1013.0
20260507110706 67 149 6.0 9.0 0.00 0.00 0.00 57 1013.0
20260507110206 66 152 3.0 9.0 0.00 0.00 0.00 58 1013.0
20260507105706 66 168 6.0 8.0 0.00 0.00 0.00 59 1013.0
20260507105206 67 116 4.0 11.0 0.00 0.00 0.00 58 1013.0
20260507104705 66 165 3.0 11.0 0.00 0.00 0.00 59 1013.0
20260507104207 67 120 6.0 11.0 0.00 0.00 0.00 59 1013.0
20260507103206 66 155 5.0 8.0 0.00 0.00 0.00 59 1013.0
20260507102706 66 120 3.0 8.0 0.00 0.00 0.00 60 1013.0
20260507102206 66 153 3.0 8.0 0.00 0.00 0.00 59 1013.0
20260507101705 67 169 2.0 8.0 0.00 0.00 0.00 59 1013.0
20260507101206 67 154 2.0 6.0 0.00 0.00 0.00 60 1013.0
20260507100706 66 122 4.0 6.0 0.00 0.00 0.00 61 1013.0
20260507100207 66 182 2.0 5.0 0.00 0.00 0.00 60 1013.0
20260507095206 65 312 0.0 6.0 0.00 0.00 0.00 63 1013.0
20260507094706 64 165 3.0 6.0 0.00 0.00 0.00 64 1013.0
20260507094206 64 130 3.0 6.0 0.00 0.00 0.00 65 1013.0
20260507093705 64 164 4.0 6.0 0.00 0.00 0.00 66 1013.0
20260507093207 63 120 2.0 6.0 0.00 0.00 0.00 66 1013.0
20260507092706 63 89 2.0 6.0 0.00 0.00 0.00 65 1013.0
20260507092206 62 138 0.0 6.0 0.00 0.00 0.00 68 1013.0
20260507091705 63 126 4.0 6.0 0.00 0.00 0.00 67 1013.0
20260507091206 63 154 4.0 5.0 0.00 0.00 0.00 67 1013.0
20260507090706 63 136 2.0 5.0 0.00 0.00 0.00 67 1013.0
20260507090206 63 149 0.0 5.0 0.00 0.00 0.00 67 1013.0
20260507085708 63 160 4.0 5.0 0.00 0.00 0.00 67 1013.0
20260507084707 64 151 0.0 5.0 0.00 0.00 0.00 67 1013.0
20260507084206 64 163 4.0 5.0 0.00 0.00 0.00 67 1013.0
20260507083706 63 147 0.0 5.0 0.00 0.00 0.00 67 1013.0
20260507083208 63 151 3.0 4.0 0.00 0.00 0.00 68 1013.0
20260507082706 63 179 0.0 4.0 0.00 0.00 0.00 70 1013.0
20260507082205 62 176 0.0 4.0 0.00 0.00 0.00 71 1013.0
20260507081207 61 140 3.0 4.0 0.00 0.00 0.00 72 1013.0
20260507080707 60 162 0.0 4.0 0.00 0.00 0.00 73 1013.0
20260507080208 60 141 0.0 3.0 0.00 0.00 0.00 73 1013.0
20260507075706 60 132 0.0 5.0 0.00 0.00 0.00 73 1013.0
20260507075206 60 179 0.0 5.0 0.00 0.00 0.00 73 1013.0
20260507074706 59 147 0.0 3.0 0.00 0.00 0.00 73 1013.0
20260507073705 58 247 0.0 0.0 0.00 0.00 0.00 76 1013.0
20260507072705 58 270 0.0 0.0 0.00 0.00 0.00 77 1013.0
20260507072207 58 270 0.0 0.0 0.00 0.00 0.00 77 1013.0
20260507071706 58 270 0.0 0.0 0.00 0.00 0.00 78 1013.0
20260507071205 57 270 0.0 0.0 0.00 0.00 0.00 79 1013.0
20260507070706 57 270 0.0 0.0 0.00 0.00 0.00 80 1013.0
20260507065706 56 270 0.0 0.0 0.00 0.00 0.00 81 1013.0
20260507065206 56 270 0.0 0.0 0.00 0.00 0.00 81 1013.0
20260507064707 56 270 0.0 0.0 0.00 0.00 0.00 81 1013.0
20260507064207 56 270 0.0 0.0 0.00 0.00 0.00 81 1013.0
20260507063706 56 270 0.0 0.0 0.00 0.00 0.00 82 1013.0
20260507062706 56 270 0.0 0.0 0.00 0.00 0.00 83 1013.0
20260507062208 56 270 0.0 0.0 0.00 0.00 0.00 84 1013.0
20260507061707 55 270 0.0 0.0 0.00 0.00 0.00 86 1013.0
20260507061207 54 326 0.0 0.0 0.00 0.00 0.00 87 1013.0
20260507060706 53 326 0.0 0.0 0.00 0.00 0.00 87 1013.0
20260507060207 53 326 0.0 0.0 0.00 0.00 0.00 87 1013.0
20260507055707 53 326 0.0 0.0 0.00 0.00 0.00 87 1013.0
20260507055206 52 326 0.0 0.0 0.00 0.00 0.00 87 1013.0
20260507054705 52 326 0.0 0.0 0.00 0.00 0.00 87 1013.0
20260507054207 52 326 0.0 0.0 0.00 0.00 0.00 87 1012.0
20260507053707 52 326 0.0 0.0 0.00 0.00 0.00 88 1012.0
20260507053207 52 326 0.0 4.0 0.00 0.00 0.00 88 1012.0
20260507052706 52 326 0.0 4.0 0.00 0.00 0.00 88 1012.0
20260507051707 52 332 3.0 3.0 0.00 0.00 0.00 88 1012.0
20260507051206 52 307 0.0 4.0 0.00 0.00 0.00 88 1012.0
20260507050706 52 307 0.0 4.0 0.00 0.00 0.00 88 1012.0
20260507050206 52 307 0.0 4.0 0.00 0.00 0.00 88 1012.0
20260507045206 52 305 3.0 4.0 0.00 0.00 0.00 88 1012.0
20260507044205 52 311 2.0 4.0 0.00 0.00 0.00 89 1012.0
20260507043705 52 300 2.0 4.0 0.00 0.00 0.00 89 1012.0
20260507043206 52 308 2.0 4.0 0.00 0.00 0.00 88 1012.0
20260507042707 52 318 0.0 4.0 0.00 0.00 0.00 88 1012.0
20260507042205 52 312 2.0 4.0 0.00 0.00 0.00 88 1012.0
20260507041706 52 306 0.0 4.0 0.00 0.00 0.00 88 1012.0
20260507040706 52 331 0.0 4.0 0.00 0.00 0.00 88 1012.0
20260507040206 53 331 2.0 3.0 0.00 0.00 0.00 88 1012.0
20260507035207 53 320 0.0 4.0 0.00 0.00 0.00 88 1012.0
20260507034706 53 317 3.0 4.0 0.00 0.00 0.00 88 1012.0
20260507034208 53 308 0.0 4.0 0.00 0.00 0.00 88 1012.0
20260507033705 53 308 0.0 4.0 0.00 0.00 0.00 88 1012.0
20260507033206 53 312 0.0 3.0 0.00 0.00 0.00 88 1012.0
20260507032706 53 312 0.0 4.0 0.00 0.00 0.00 88 1012.0
20260507032206 53 313 2.0 4.0 0.00 0.00 0.00 89 1012.0
20260507031705 53 313 0.0 0.0 0.00 0.00 0.00 89 1012.0
20260507031205 53 302 0.0 0.0 0.00 0.00 0.00 89 1012.0
20260507030706 53 302 0.0 3.0 0.00 0.00 0.00 89 1012.0
20260507030207 53 302 0.0 3.0 0.00 0.00 0.00 89 1012.0
20260507025705 53 302 0.0 3.0 0.00 0.00 0.00 89 1012.0
20260507025206 53 302 3.0 3.0 0.00 0.00 0.00 89 1012.0
20260507024707 53 302 0.0 3.0 0.00 0.00 0.00 88 1012.0
20260507024206 53 302 0.0 3.0 0.00 0.00 0.00 88 1012.0
20260507023706 53 302 0.0 0.0 0.00 0.00 0.00 88 1012.0
20260507023206 54 302 0.0 3.0 0.00 0.00 0.00 88 1012.0
20260507022706 54 302 0.0 3.0 0.00 0.00 0.00 88 1012.0
20260507022206 54 302 0.0 3.0 0.00 0.00 0.00 88 1012.0
20260507021207 54 302 0.0 0.0 0.00 0.00 0.00 88 1012.0
20260507020707 54 302 0.0 3.0 0.00 0.00 0.00 88 1012.0
20260507020206 54 302 0.0 3.0 0.00 0.00 0.00 88 1012.0
20260507015705 54 302 0.0 3.0 0.00 0.00 0.00 87 1012.0
20260507015207 54 302 0.0 0.0 0.00 0.00 0.00 88 1012.0
20260507014705 54 302 0.0 0.0 0.00 0.00 0.00 88 1012.0
20260507013706 54 302 0.0 0.0 0.00 0.00 0.00 88 1012.0
20260507013206 54 302 0.0 0.0 0.00 0.00 0.00 88 1012.0
20260507012206 54 302 0.0 0.0 0.00 0.00 0.00 88 1012.0
20260507011705 54 302 0.0 0.0 0.00 0.00 0.00 89 1012.0
20260507011206 54 302 0.0 3.0 0.00 0.00 0.00 89 1012.0
20260507010707 55 302 0.0 3.0 0.00 0.00 0.00 89 1012.0
20260507010206 55 302 0.0 3.0 0.00 0.00 0.00 90 1012.0
20260507005705 55 302 0.0 0.0 0.00 0.00 0.00 90 1013.0
20260507005206 55 302 0.0 3.0 0.00 0.00 0.00 90 1013.0
20260507004206 55 302 0.0 0.0 0.00 0.00 0.00 90 1013.0
20260507003706 55 302 0.0 0.0 0.00 0.00 0.00 90 1013.0
20260507003206 55 302 0.0 3.0 0.00 0.00 0.00 91 1013.0
20260507002707 55 302 0.0 3.0 0.00 0.00 0.00 91 1013.0
20260507002207 55 302 0.0 3.0 0.00 0.00 0.00 90 1013.0
20260507001707 56 302 0.0 3.0 0.00 0.00 0.00 90 1013.0
20260507001205 56 302 0.0 3.0 0.00 0.00 0.00 90 1013.0
20260507000207 55 302 0.0 4.0 0.00 0.00 0.00 90 1013.0
20260506235705 55 302 0.0 4.0 0.00 0.00 0.00 90 1013.0
20260506235207 55 307 0.0 4.0 0.00 0.00 0.00 89 1013.0
20260506234707 56 307 0.0 4.0 0.00 0.00 0.00 90 1013.0
20260506234205 56 307 2.0 4.0 0.00 0.00 0.00 90 1013.0
20260506233207 56 304 0.0 4.0 0.00 0.00 0.00 90 1013.0
20260506232707 56 320 0.0 3.0 0.00 0.00 0.00 89 1013.0
20260506232207 56 298 0.0 2.0 0.00 0.00 0.00 89 1013.0
20260506231705 56 298 0.0 4.0 0.00 0.00 0.00 89 1013.0
20260506231205 56 298 0.0 4.0 0.00 0.00 0.00 89 1013.0
20260506230707 56 298 0.0 5.0 0.00 0.00 0.00 89 1013.0
20260506230207 56 300 0.0 5.0 0.00 0.00 0.00 88 1013.0
20260506225705 56 300 0.0 5.0 0.00 0.00 0.00 88 1013.0
20260506225207 56 306 0.0 4.0 0.00 0.00 0.00 86 1013.0
20260506224705 56 312 0.0 4.0 0.00 0.00 0.00 85 1013.0
20260506224206 56 318 0.0 4.0 0.00 0.00 0.00 84 1013.0
20260506223705 56 318 0.0 4.0 0.00 0.00 0.00 83 1013.0
20260506223206 56 319 0.0 4.0 0.00 0.00 0.00 82 1013.0
20260506222706 56 319 0.0 4.0 0.00 0.00 0.00 81 1013.0
20260506222205 56 319 3.0 3.0 0.00 0.00 0.00 80 1013.0
20260506221706 56 320 0.0 3.0 0.00 0.00 0.00 80 1013.0
20260506221206 56 320 0.0 4.0 0.00 0.00 0.00 80 1013.0
20260506220707 56 320 0.0 4.0 0.00 0.00 0.00 79 1013.0
20260506220206 56 321 3.0 4.0 0.00 0.00 0.00 79 1012.0
20260506215706 56 299 0.0 4.0 0.00 0.00 0.00 79 1012.0
20260506214706 57 300 2.0 4.0 0.00 0.00 0.00 79 1012.0
20260506213706 57 309 3.0 4.0 0.00 0.00 0.00 79 1012.0
20260506213206 57 313 0.0 0.0 0.00 0.00 0.00 77 1012.0
20260506210206 57 313 2.0 3.0 0.00 0.00 0.00 78 1013.0
20260506205705 58 313 0.0 4.0 0.00 0.00 0.00 77 1012.0
20260506205206 58 313 0.0 4.0 0.00 0.00 0.00 77 1012.0
20260506204206 58 300 3.0 0.0 0.00 0.00 0.00 74 1012.0
20260506203705 58 154 0.0 3.0 0.00 0.00 0.00 73 1012.0
20260506203206 58 154 0.0 3.0 0.00 0.00 0.00 72 1012.0
20260506202706 60 144 0.0 3.0 0.00 0.00 0.00 70 1012.0
20260506202207 60 136 3.0 3.0 0.00 0.00 0.00 69 1012.0
20260506201205 60 146 0.0 4.0 0.00 0.00 0.00 69 1012.0
20260506200707 60 163 0.0 4.0 0.00 0.00 0.00 70 1012.0
20260506200206 60 161 0.0 3.0 0.00 0.00 0.00 71 1012.0
20260506195206 60 131 2.0 3.0 0.00 0.00 0.00 72 1011.0
20260506194706 60 179 0.0 3.0 0.00 0.00 0.00 73 1011.0
20260506194206 60 129 0.0 3.0 0.00 0.00 0.00 73 1011.0
20260506193705 60 179 0.0 3.0 0.00 0.00 0.00 73 1011.0
20260506193207 60 141 0.0 4.0 0.00 0.00 0.00 72 1011.0
20260506192706 60 162 0.0 4.0 0.00 0.00 0.00 72 1011.0
20260506192207 61 176 0.0 5.0 0.00 0.00 0.00 71 1011.0